Showing default

PICO-02D024, 60569

Orbit data source: Space-Track

PICO-02D024, 60569 is a payload satellite owned by Apogeo Space (IT) in LEO that was launched on Fri, 16 Aug 2024 UTC via an FALCON 9 launch vehicle from the Air Force Western Test Range (AFWTR). Payload-class satellites include a variety of spacecraft equipped with specific instruments for various scientific and technological missions. These include communications satellites like Starlink; space stations such as the ISS; scientific satellites like the Hubble; Earth observation satellites from companies like Planet Labs, Umbra, and HawkEye 360; GPS; miniature CubeSats for education and research; and military/defense satellites.

Not visible in the next 10 days
Identifier
60569, 2024-149DF
Orbit
LEO
Country
Flag of ITIT
Related business
Manufacturer
Apogeo Space
Mission
Decayed Commercial Communications
Bus & Motor
CUBESAT 0.3U, Unknown motor
Mass
0.5 kg wet, 0.5 kg dry
Launch date (UTC)
2024-08-16 (1 year ago)
Launch vehicle
FALCON 9
Launch site
Air Force Western Test Range (AFWTR)
Object type
Payload
Rocket body
Debris
Shape & HBR
Box, 0.1 m
Radar Cross Section
0.008 m², Medium (>0.1 m² and < 1m²)

Expand to show TLE details & history
Last TLE update: 3 days ago

TLE from 3 days ago
0 PICO-02D024
1 60569U 24149DF  26033.73415108  .12941729  26158-5  28732-2 0  9995
2 60569  97.6362 132.0015 0012278 301.5474  58.4620 16.30163670 81217
Epoch: 2026-02-02T17:37Z
TLE epoch observation values (Epoch: 2026-02-02T17:37:10.653Z)
Latitude
Longitude
94.78192°
Altitude
191.118 km
Speed
7.794 km/s
True Right ascension
08h 48m 00s
True Declination
0° 00' 00"
Sunlit
Object was in full shadow at epoch
Visualization orbit readout
Latitude
Unknown
Longitude
Unknown
Altitude
Unknown
Speed
Unknown
Apparent Right ascension
Unknown
Apparent Declination
Unknown
Sunlit
N/A
Visualization observer readout
Local Sidereal Time
16:57:05
Azimuth
Unknown
Elevation
Unknown
Doppler factor
Unknown
Orbital elements
Apogee altitude
196.994 km
Perigee altitude
180.868 km
Semi-major axis
6,567.068 km
Eccentricity
0.00123
Inclination
97.6362°
RAAN
132.0015°
Arg. of periapsis
301.5474°
True anomaly
58.58201°
Mean anomaly
58.462°
Eccentric anomaly
58.522°
Mean motion
4.07836 °/min
Orbital period
88.27 mins
BSTAR
0.0028732
Loading maneuver chart data...
Computing Atmospheric mass density...
Loading historical data...
Loading historical data...
Loading historical data...
Loading historical data...
Loading historical data...
Loading historical data...
Loading historical data...

Documentation

Showing up to 5 results
|